Location: Killam
(52.7910°N, 111.8608°W)
Time: 00:41:55
(UTC+00:00)

Tiros 1 despin weight - All Passes

Search period start: 07 February 2026 00:00
Search period end: 17 February 2026 00:00
Orbit: 557 x 594 km, 48.2° (Epoch: 5 February)

Date Brightness Start Highest point End Pass type
(mag) Time Alt. Az. Time Alt. Az. Time Alt. Az.
7 Feb - 02:24:09 10° S 02:26:09 13° SE 02:28:11 10° ESE visible
7 Feb - 04:02:04 10° SW 04:05:53 33° SSE 04:09:43 10° E visible
7 Feb - 05:41:57 10° WSW 05:46:01 45° S 05:50:07 10° ESE night (unlit)
7 Feb - 07:22:23 10° W 07:26:07 30° SSW 07:29:52 10° SE night (unlit)
7 Feb - 09:04:40 10° SW 09:05:45 11° SW 09:06:52 10° SSW night (unlit)
8 Feb - 02:25:37 10° S 02:28:28 18° SSE 02:31:19 10° ESE visible
8 Feb - 04:04:24 10° SW 04:08:19 38° SSE 04:12:17 10° E visible
8 Feb - 05:44:28 10° WSW 05:48:29 43° S 05:52:33 10° ESE night (unlit)
8 Feb - 07:25:03 10° W 07:28:30 24° SSW 07:32:00 10° SSE night (unlit)
9 Feb - 02:27:29 10° SSW 02:30:48 23° SSE 02:34:08 10° E visible
9 Feb - 04:06:46 10° WSW 04:10:46 43° S 04:14:48 10° E visible
9 Feb - 05:46:59 10° W 05:50:57 40° SSW 05:54:57 10° ESE night (unlit)
9 Feb - 07:27:48 10° WSW 07:30:51 19° SSW 07:33:55 10° SSE night (unlit)
10 Feb - 02:29:33 10° SW 02:33:10 28° SSE 02:36:48 10° E visible
10 Feb - 04:09:12 10° WSW 04:13:13 45° S 04:17:17 10° ESE visible
10 Feb - 05:49:30 10° W 05:53:22 35° SSW 05:57:15 10° SE night (unlit)
10 Feb - 07:30:48 10° WSW 07:33:09 14° SW 07:35:29 10° S night (unlit)
11 Feb - 00:53:43 10° S 00:55:49 14° SE 00:57:56 10° ESE daylight
11 Feb - 02:31:45 10° SW 02:35:33 34° SSE 02:39:22 10° E visible
11 Feb - 04:11:38 10° WSW 04:15:40 45° S 04:19:44 10° ESE visible
11 Feb - 05:52:05 10° W 05:55:46 29° SSW 05:59:28 10° SE night (unlit)
11 Feb - 07:34:45 10° SW 07:35:23 10° SW 07:36:01 10° SSW night (unlit)
12 Feb - 00:55:12 10° SSW 00:58:04 18° SSE 01:00:58 10° ESE daylight
12 Feb - 02:34:01 10° SW 02:37:56 39° SSE 02:41:54 10° E visible
12 Feb - 04:14:06 10° WSW 04:18:06 43° S 04:22:08 10° ESE visible
12 Feb - 05:54:42 10° W 05:58:06 24° SSW 06:01:32 10° SSE night (unlit)
13 Feb - 00:57:01 10° SSW 01:00:22 23° SSE 01:03:43 10° E daylight
13 Feb - 02:36:21 10° WSW 02:40:21 43° S 02:44:22 10° ESE visible
13 Feb - 04:16:34 10° W 04:20:31 39° SSW 04:24:29 10° ESE visible
13 Feb - 05:57:27 10° WSW 06:00:24 18° SSW 06:03:22 10° SSE night (unlit)
14 Feb - 00:59:04 10° SW 01:02:41 29° SSE 01:06:19 10° E daylight
14 Feb - 02:38:45 10° WSW 02:42:45 45° S 02:46:48 10° ESE visible
14 Feb - 04:19:04 10° W 04:22:53 34° SSW 04:26:43 10° SE visible
14 Feb - 06:00:27 10° WSW 06:02:39 14° SW 06:04:51 10° S night (unlit)
14 Feb - 23:23:05 10° S 23:25:17 14° SE 23:27:29 10° ESE daylight
15 Feb - 01:01:13 10° SW 01:05:01 34° SSE 01:08:51 10° E daylight
15 Feb - 02:41:09 10° WSW 02:45:10 45° S 02:49:12 10° ESE visible
15 Feb - 04:21:36 10° W 04:25:13 28° SSW 04:28:53 10° SE visible
15 Feb - 23:24:34 10° SSW 23:27:30 19° SSE 23:30:27 10° ESE daylight
16 Feb - 01:03:28 10° WSW 01:07:23 39° SSE 01:11:19 10° E daylight
16 Feb - 02:43:33 10° WSW 02:47:33 42° S 02:51:33 10° ESE visible
16 Feb - 04:24:11 10° W 04:27:31 23° SSW 04:30:52 10° SSE visible
16 Feb - 23:26:23 10° SSW 23:29:45 24° SSE 23:33:08 10° E daylight
